Year,Month,Day,Hour,Minute,Value (Times are PST for temperature in C)
2013,07,16,00,00,17.80
2013,07,16,00,01,17.80
2013,07,16,00,02,17.90
2013,07,16,00,03,17.90
2013,07,16,00,04,17.90
2013,07,16,00,05,17.90
2013,07,16,00,06,17.90
2013,07,16,00,07,17.90
2013,07,16,00,08,17.90
2013,07,16,00,09,17.90
2013,07,16,00,10,17.90
2013,07,16,00,11,17.90
2013,07,16,00,12,17.90
2013,07,16,00,13,17.90
2013,07,16,00,14,17.90
2013,07,16,00,15,17.90
2013,07,16,00,16,17.90
2013,07,16,00,17,17.90
2013,07,16,00,18,18.00
2013,07,16,00,19,18.00
2013,07,16,00,20,17.90
2013,07,16,00,21,17.90
2013,07,16,00,22,17.90
2013,07,16,00,23,17.90
2013,07,16,00,24,17.90
2013,07,16,00,25,18.00
2013,07,16,00,26,18.10
2013,07,16,00,27,18.10
2013,07,16,00,28,18.10
2013,07,16,00,29,18.10
2013,07,16,00,30,18.10
2013,07,16,00,31,18.10
2013,07,16,00,32,18.10
2013,07,16,00,33,18.20
2013,07,16,00,34,18.20
2013,07,16,00,35,18.20
2013,07,16,00,36,18.20
2013,07,16,00,37,18.10
2013,07,16,00,38,18.10
2013,07,16,00,39,18.10
2013,07,16,00,40,18.10
2013,07,16,00,41,18.10
2013,07,16,00,42,18.10
2013,07,16,00,43,18.10
2013,07,16,00,44,18.10
2013,07,16,00,45,18.00
2013,07,16,00,46,18.10
2013,07,16,00,47,18.10
2013,07,16,00,48,18.10
2013,07,16,00,49,18.10
2013,07,16,00,50,18.10
2013,07,16,00,51,18.10
2013,07,16,00,52,18.10
2013,07,16,00,53,18.10
2013,07,16,00,54,18.10
2013,07,16,00,55,18.00
2013,07,16,00,56,18.10
2013,07,16,00,57,18.10
2013,07,16,00,58,18.10
2013,07,16,00,59,18.10
2013,07,16,01,00,18.10
2013,07,16,01,01,18.10
2013,07,16,01,02,18.10
2013,07,16,01,03,18.10
2013,07,16,01,04,18.10
2013,07,16,01,05,17.90
2013,07,16,01,06,17.90
2013,07,16,01,07,17.90
2013,07,16,01,08,17.90
2013,07,16,01,09,17.90
2013,07,16,01,10,17.90
2013,07,16,01,11,17.90
2013,07,16,01,12,17.90
2013,07,16,01,13,17.90
2013,07,16,01,14,17.90
2013,07,16,01,15,17.90
2013,07,16,01,16,17.80
2013,07,16,01,17,17.80
2013,07,16,01,18,17.90
2013,07,16,01,19,17.90
2013,07,16,01,20,17.90
2013,07,16,01,21,17.80
2013,07,16,01,22,17.80
2013,07,16,01,23,17.80
2013,07,16,01,24,17.80
2013,07,16,01,25,17.80
2013,07,16,01,26,17.80
2013,07,16,01,27,17.90
2013,07,16,01,28,17.80
2013,07,16,01,29,17.80
2013,07,16,01,30,17.80
2013,07,16,01,31,17.80
2013,07,16,01,32,17.90
2013,07,16,01,33,18.00
2013,07,16,01,34,18.10
2013,07,16,01,35,18.10
2013,07,16,01,36,18.10
2013,07,16,01,37,18.10
2013,07,16,01,38,18.00
2013,07,16,01,39,18.10
2013,07,16,01,40,18.20
2013,07,16,01,41,18.40
2013,07,16,01,42,18.60
2013,07,16,01,43,18.80
2013,07,16,01,44,18.80
2013,07,16,01,45,18.80
2013,07,16,01,46,18.70
2013,07,16,01,47,18.70
2013,07,16,01,48,18.70
2013,07,16,01,49,18.70
2013,07,16,01,50,18.60
2013,07,16,01,51,18.60
2013,07,16,01,52,18.50
2013,07,16,01,53,18.40
2013,07,16,01,54,18.30
2013,07,16,01,55,18.30
2013,07,16,01,56,18.30
2013,07,16,01,57,18.20
2013,07,16,01,58,18.20
2013,07,16,01,59,18.30
2013,07,16,02,00,18.30
2013,07,16,02,01,18.40
2013,07,16,02,02,18.30
2013,07,16,02,03,18.30
2013,07,16,02,04,18.30
2013,07,16,02,05,18.20
2013,07,16,02,06,18.20
2013,07,16,02,07,18.10
2013,07,16,02,08,18.00
2013,07,16,02,09,17.90
2013,07,16,02,10,17.90
2013,07,16,02,11,17.90
2013,07,16,02,12,17.90
2013,07,16,02,13,17.90
2013,07,16,02,14,17.90
2013,07,16,02,15,17.90
2013,07,16,02,16,17.90
2013,07,16,02,17,17.90
2013,07,16,02,18,17.90
2013,07,16,02,19,17.90
2013,07,16,02,20,17.90
2013,07,16,02,21,17.90
2013,07,16,02,22,17.80
2013,07,16,02,23,17.80
2013,07,16,02,24,17.70
2013,07,16,02,25,17.70
2013,07,16,02,26,17.60
2013,07,16,02,27,17.50
2013,07,16,02,28,17.50
2013,07,16,02,29,17.50
2013,07,16,02,30,17.50
2013,07,16,02,31,17.50
2013,07,16,02,32,17.50
2013,07,16,02,33,17.50
2013,07,16,02,34,17.40
2013,07,16,02,35,17.40
2013,07,16,02,36,17.40
2013,07,16,02,37,17.30
2013,07,16,02,38,17.40
2013,07,16,02,39,17.40
2013,07,16,02,40,17.40
2013,07,16,02,41,17.40
2013,07,16,02,42,17.40
2013,07,16,02,43,17.40
2013,07,16,02,44,17.40
2013,07,16,02,45,17.40
2013,07,16,02,46,17.40
2013,07,16,02,47,17.40
2013,07,16,02,48,17.40
2013,07,16,02,49,17.40
2013,07,16,02,50,17.40
2013,07,16,02,51,17.40
2013,07,16,02,52,17.30
2013,07,16,02,53,17.30
2013,07,16,02,54,17.40
2013,07,16,02,55,17.40
2013,07,16,02,56,17.40
2013,07,16,02,57,17.40
2013,07,16,02,58,17.40
2013,07,16,02,59,17.40
2013,07,16,03,00,17.30
2013,07,16,03,01,17.30
2013,07,16,03,02,17.40
2013,07,16,03,03,17.30
2013,07,16,03,04,17.30
2013,07,16,03,05,17.40
2013,07,16,03,06,17.40
2013,07,16,03,07,17.40
2013,07,16,03,08,17.40
2013,07,16,03,09,17.40
2013,07,16,03,10,17.30
2013,07,16,03,11,17.30
2013,07,16,03,12,17.30
2013,07,16,03,13,17.30
2013,07,16,03,14,17.30
2013,07,16,03,15,17.30
2013,07,16,03,16,17.30
2013,07,16,03,17,17.30
2013,07,16,03,18,17.30
2013,07,16,03,19,17.30
2013,07,16,03,20,17.30
2013,07,16,03,21,17.20
2013,07,16,03,22,17.20
2013,07,16,03,23,17.10
2013,07,16,03,24,17.00
2013,07,16,03,25,16.90
2013,07,16,03,26,16.90
2013,07,16,03,27,16.80
2013,07,16,03,28,16.80
2013,07,16,03,29,16.70
2013,07,16,03,30,16.70
2013,07,16,03,31,16.70
2013,07,16,03,32,16.60
2013,07,16,03,33,16.60
2013,07,16,03,34,16.60
2013,07,16,03,35,16.70
2013,07,16,03,36,16.70
2013,07,16,03,37,16.70
2013,07,16,03,38,16.70
2013,07,16,03,39,16.70
2013,07,16,03,40,16.70
2013,07,16,03,41,16.70
2013,07,16,03,42,16.70
2013,07,16,03,43,16.70
2013,07,16,03,44,16.70
2013,07,16,03,45,16.70
2013,07,16,03,46,16.70
2013,07,16,03,47,16.70
2013,07,16,03,48,16.70
2013,07,16,03,49,16.70
2013,07,16,03,50,16.70
2013,07,16,03,51,16.80
2013,07,16,03,52,16.80
2013,07,16,03,53,16.80
2013,07,16,03,54,16.80
2013,07,16,03,55,16.80
2013,07,16,03,56,16.80
2013,07,16,03,57,16.80
2013,07,16,03,58,16.90
2013,07,16,03,59,16.90
2013,07,16,04,00,16.90
2013,07,16,04,01,16.90
2013,07,16,04,02,16.90
2013,07,16,04,03,16.90
2013,07,16,04,04,16.90
2013,07,16,04,05,16.80
2013,07,16,04,06,16.80
2013,07,16,04,07,16.80
2013,07,16,04,08,16.80
2013,07,16,04,09,16.80
2013,07,16,04,10,16.80
2013,07,16,04,11,16.80
2013,07,16,04,12,16.80
2013,07,16,04,13,16.80
2013,07,16,04,14,16.80
2013,07,16,04,15,16.80
2013,07,16,04,16,16.80
2013,07,16,04,17,16.70
2013,07,16,04,18,16.70
2013,07,16,04,19,16.70
2013,07,16,04,20,16.70
2013,07,16,04,21,16.70
2013,07,16,04,22,16.70
2013,07,16,04,23,16.70
2013,07,16,04,24,16.70
2013,07,16,04,25,16.70
2013,07,16,04,26,16.70
2013,07,16,04,27,16.70
2013,07,16,04,28,16.70
2013,07,16,04,29,16.60
2013,07,16,04,30,16.60
2013,07,16,04,31,16.60
2013,07,16,04,32,16.60
2013,07,16,04,33,16.50
2013,07,16,04,34,16.40
2013,07,16,04,35,16.40
2013,07,16,04,36,16.40
2013,07,16,04,37,16.40
2013,07,16,04,38,16.30
2013,07,16,04,39,16.30
2013,07,16,04,40,16.30
2013,07,16,04,41,16.30
2013,07,16,04,42,16.20
2013,07,16,04,43,16.20
2013,07,16,04,44,16.30
2013,07,16,04,45,16.30
2013,07,16,04,46,16.20
2013,07,16,04,47,16.20
2013,07,16,04,48,16.20
2013,07,16,04,49,16.20
2013,07,16,04,50,16.20
2013,07,16,04,51,16.20
2013,07,16,04,52,16.20
2013,07,16,04,53,16.20
2013,07,16,04,54,16.20
2013,07,16,04,55,16.10
2013,07,16,04,56,16.10
2013,07,16,04,57,16.10
2013,07,16,04,58,16.10
2013,07,16,04,59,16.10
2013,07,16,05,00,16.10
2013,07,16,05,01,16.10
2013,07,16,05,02,16.10
2013,07,16,05,03,16.20
2013,07,16,05,04,16.30
2013,07,16,05,05,16.40
2013,07,16,05,06,16.40
2013,07,16,05,07,16.50
2013,07,16,05,08,16.60
2013,07,16,05,09,16.60
2013,07,16,05,10,16.60
2013,07,16,05,11,16.60
2013,07,16,05,12,16.50
2013,07,16,05,13,16.40
2013,07,16,05,14,16.40
2013,07,16,05,15,16.30
2013,07,16,05,16,16.30
2013,07,16,05,17,16.20
2013,07,16,05,18,16.10
2013,07,16,05,19,16.10
2013,07,16,05,20,16.10
2013,07,16,05,21,16.10
2013,07,16,05,22,16.10
2013,07,16,05,23,16.10
2013,07,16,05,24,16.10
2013,07,16,05,25,16.10
2013,07,16,05,26,16.10
2013,07,16,05,27,16.10
2013,07,16,05,28,16.00
2013,07,16,05,29,15.90
2013,07,16,05,30,15.90
2013,07,16,05,31,15.90
2013,07,16,05,32,16.00
2013,07,16,05,33,16.10
2013,07,16,05,34,16.20
2013,07,16,05,35,16.30
2013,07,16,05,36,16.30
2013,07,16,05,37,16.30
2013,07,16,05,38,16.30
2013,07,16,05,39,16.30
2013,07,16,05,40,16.30
2013,07,16,05,41,16.30
2013,07,16,05,42,16.30
2013,07,16,05,43,16.30
2013,07,16,05,44,16.30
2013,07,16,05,45,16.30
2013,07,16,05,46,16.30
2013,07,16,05,47,16.30
2013,07,16,05,48,16.20
2013,07,16,05,49,16.20
2013,07,16,05,50,16.20
2013,07,16,05,51,16.20
2013,07,16,05,52,16.10
2013,07,16,05,53,16.10
2013,07,16,05,54,16.10
2013,07,16,05,55,16.10
2013,07,16,05,56,16.10
2013,07,16,05,57,16.10
2013,07,16,05,58,16.10
2013,07,16,05,59,16.10
2013,07,16,06,00,16.10
2013,07,16,06,01,16.10
2013,07,16,06,02,16.10
2013,07,16,06,03,16.10
2013,07,16,06,04,16.10
2013,07,16,06,05,16.10
2013,07,16,06,06,16.10
2013,07,16,06,07,16.10
2013,07,16,06,08,16.10
2013,07,16,06,09,16.10
2013,07,16,06,10,16.10
2013,07,16,06,11,16.10
2013,07,16,06,12,16.20
2013,07,16,06,13,16.20
2013,07,16,06,14,16.20
2013,07,16,06,15,16.20
2013,07,16,06,16,16.30
2013,07,16,06,17,16.30
2013,07,16,06,18,16.30
2013,07,16,06,19,16.30
2013,07,16,06,20,16.30
2013,07,16,06,21,16.40
2013,07,16,06,22,16.40
2013,07,16,06,23,16.40
2013,07,16,06,24,16.50
2013,07,16,06,25,16.60
2013,07,16,06,26,16.60
2013,07,16,06,27,16.70
2013,07,16,06,28,16.70
2013,07,16,06,29,16.80
2013,07,16,06,30,16.90
2013,07,16,06,31,16.90
2013,07,16,06,32,17.00
2013,07,16,06,33,17.00
2013,07,16,06,34,17.10
2013,07,16,06,35,17.10
2013,07,16,06,36,17.20
2013,07,16,06,37,17.20
2013,07,16,06,38,17.30
2013,07,16,06,39,17.30
2013,07,16,06,40,17.30
2013,07,16,06,41,17.30
2013,07,16,06,42,17.30
2013,07,16,06,43,17.40
2013,07,16,06,44,17.40
2013,07,16,06,45,17.40
2013,07,16,06,46,17.50
2013,07,16,06,47,17.60
2013,07,16,06,48,17.70
2013,07,16,06,49,17.70
2013,07,16,06,50,17.80
2013,07,16,06,51,17.90
2013,07,16,06,52,17.90
2013,07,16,06,53,18.10
2013,07,16,06,54,18.10
2013,07,16,06,55,18.10
2013,07,16,06,56,18.10
2013,07,16,06,57,18.20
2013,07,16,06,58,18.20
2013,07,16,06,59,18.20
2013,07,16,07,00,18.20
2013,07,16,07,01,18.30
2013,07,16,07,02,18.40
2013,07,16,07,03,18.50
2013,07,16,07,04,18.50
2013,07,16,07,05,18.60
2013,07,16,07,06,18.70
2013,07,16,07,07,18.80
2013,07,16,07,08,18.90
2013,07,16,07,09,19.00
2013,07,16,07,10,19.10
2013,07,16,07,11,19.10
2013,07,16,07,12,19.20
2013,07,16,07,13,19.30
2013,07,16,07,14,19.40
2013,07,16,07,15,19.40
2013,07,16,07,16,19.40
2013,07,16,07,17,19.50
2013,07,16,07,18,19.60
2013,07,16,07,19,19.60
2013,07,16,07,20,19.60
2013,07,16,07,21,19.60
2013,07,16,07,22,19.50
2013,07,16,07,23,19.50
2013,07,16,07,24,19.50
2013,07,16,07,25,19.50
2013,07,16,07,26,19.50
2013,07,16,07,27,19.50
2013,07,16,07,28,19.50
2013,07,16,07,29,19.60
2013,07,16,07,30,19.50
2013,07,16,07,31,19.50
2013,07,16,07,32,19.50
2013,07,16,07,33,19.40
2013,07,16,07,34,19.40
2013,07,16,07,35,19.30
2013,07,16,07,36,19.40
2013,07,16,07,37,19.40
2013,07,16,07,38,19.40
2013,07,16,07,39,19.40
2013,07,16,07,40,19.50
2013,07,16,07,41,19.50
2013,07,16,07,42,19.60
2013,07,16,07,43,19.60
2013,07,16,07,44,19.60
2013,07,16,07,45,19.60
2013,07,16,07,46,19.60
2013,07,16,07,47,19.70
2013,07,16,07,48,19.70
2013,07,16,07,49,19.70
2013,07,16,07,50,19.70
2013,07,16,07,51,19.70
2013,07,16,07,52,19.80
2013,07,16,07,53,19.70
2013,07,16,07,54,19.80
2013,07,16,07,55,19.80
2013,07,16,07,56,19.80
2013,07,16,07,57,19.80
2013,07,16,07,58,19.80
2013,07,16,07,59,19.80
2013,07,16,08,00,19.80
2013,07,16,08,01,19.80
2013,07,16,08,02,19.80
2013,07,16,08,03,19.80
2013,07,16,08,04,19.90
2013,07,16,08,05,19.90
2013,07,16,08,06,20.00
2013,07,16,08,07,20.10
2013,07,16,08,08,20.00
2013,07,16,08,09,20.00
2013,07,16,08,10,20.10
2013,07,16,08,11,20.10
2013,07,16,08,12,20.20
2013,07,16,08,13,20.20
2013,07,16,08,14,20.30
2013,07,16,08,15,20.30
2013,07,16,08,16,20.20
2013,07,16,08,17,20.30
2013,07,16,08,18,20.30
2013,07,16,08,19,20.30
2013,07,16,08,20,20.30
2013,07,16,08,21,20.30
2013,07,16,08,22,20.30
2013,07,16,08,23,20.30
2013,07,16,08,24,20.30
2013,07,16,08,25,20.30
2013,07,16,08,26,20.40
2013,07,16,08,27,20.40
2013,07,16,08,28,20.40
2013,07,16,08,29,20.50
2013,07,16,08,30,20.50
2013,07,16,08,31,20.60
2013,07,16,08,32,20.60
2013,07,16,08,33,20.70
2013,07,16,08,34,20.80
2013,07,16,08,35,20.80
2013,07,16,08,36,20.80
2013,07,16,08,37,20.80
2013,07,16,08,38,20.80
2013,07,16,08,39,20.80
2013,07,16,08,40,20.80
2013,07,16,08,41,20.80
2013,07,16,08,42,20.80
2013,07,16,08,43,20.80
2013,07,16,08,44,20.80
2013,07,16,08,45,20.70
2013,07,16,08,46,20.60
2013,07,16,08,47,20.60
2013,07,16,08,48,20.60
2013,07,16,08,49,20.50
2013,07,16,08,50,20.50
2013,07,16,08,51,20.50
2013,07,16,08,52,20.50
2013,07,16,08,53,20.50
2013,07,16,08,54,20.60
2013,07,16,08,55,20.70
2013,07,16,08,56,20.80
2013,07,16,08,57,20.90
2013,07,16,08,58,20.90
2013,07,16,08,59,21.00
2013,07,16,09,00,21.00
2013,07,16,09,01,21.10
2013,07,16,09,02,21.20
2013,07,16,09,03,21.20
2013,07,16,09,04,21.20
2013,07,16,09,05,21.20
2013,07,16,09,06,21.20
2013,07,16,09,07,21.10
2013,07,16,09,08,21.10
2013,07,16,09,09,21.10
2013,07,16,09,10,21.10
2013,07,16,09,11,21.10
2013,07,16,09,12,21.20
2013,07,16,09,13,21.30
2013,07,16,09,14,21.20
2013,07,16,09,15,21.20
2013,07,16,09,16,21.30
2013,07,16,09,17,21.30
2013,07,16,09,18,21.20
2013,07,16,09,19,21.20
2013,07,16,09,20,21.10
2013,07,16,09,21,21.10
2013,07,16,09,22,21.10
2013,07,16,09,23,21.20
2013,07,16,09,24,21.30
2013,07,16,09,25,21.30
2013,07,16,09,26,21.40
2013,07,16,09,27,21.30
2013,07,16,09,28,21.30
2013,07,16,09,29,21.30
2013,07,16,09,30,21.30
2013,07,16,09,31,21.30
2013,07,16,09,32,21.30
2013,07,16,09,33,21.30
2013,07,16,09,34,21.30
2013,07,16,09,35,21.40
2013,07,16,09,36,21.50
2013,07,16,09,37,21.60
2013,07,16,09,38,21.60
2013,07,16,09,39,21.60
2013,07,16,09,40,21.60
2013,07,16,09,41,21.60
2013,07,16,09,42,21.60
2013,07,16,09,43,21.70
2013,07,16,09,44,21.70
2013,07,16,09,45,21.70
2013,07,16,09,46,21.60
2013,07,16,09,47,21.60
2013,07,16,09,48,21.60
2013,07,16,09,49,21.70
2013,07,16,09,50,21.70
2013,07,16,09,51,21.70
2013,07,16,09,52,21.70
2013,07,16,09,53,21.70
2013,07,16,09,54,21.70
2013,07,16,09,55,21.80
2013,07,16,09,56,21.80
2013,07,16,09,57,21.70
2013,07,16,09,58,21.70
2013,07,16,09,59,21.60
2013,07,16,10,00,21.60
2013,07,16,10,01,21.60
2013,07,16,10,02,21.60
2013,07,16,10,03,21.60
2013,07,16,10,04,21.80
2013,07,16,10,05,21.70
2013,07,16,10,06,21.70
2013,07,16,10,07,21.80
2013,07,16,10,08,21.80
2013,07,16,10,09,21.60
2013,07,16,10,10,21.60
2013,07,16,10,11,21.60
2013,07,16,10,12,21.60
2013,07,16,10,13,21.60
2013,07,16,10,14,21.60
2013,07,16,10,15,21.60
2013,07,16,10,16,21.60
2013,07,16,10,17,21.60
2013,07,16,10,18,21.60
2013,07,16,10,19,21.60
2013,07,16,10,20,21.60
2013,07,16,10,21,21.60
2013,07,16,10,22,21.60
2013,07,16,10,23,21.60
2013,07,16,10,24,21.60
2013,07,16,10,25,21.70
2013,07,16,10,26,21.90
2013,07,16,10,27,21.90
2013,07,16,10,28,22.00
2013,07,16,10,29,22.00
2013,07,16,10,30,22.10
2013,07,16,10,31,22.20
2013,07,16,10,32,22.30
2013,07,16,10,33,22.30
2013,07,16,10,34,22.30
2013,07,16,10,35,22.40
2013,07,16,10,36,22.50
2013,07,16,10,37,22.60
2013,07,16,10,38,22.60
2013,07,16,10,39,22.60
2013,07,16,10,40,22.60
2013,07,16,10,41,22.50
2013,07,16,10,42,22.50
2013,07,16,10,43,22.50
2013,07,16,10,44,22.50
2013,07,16,10,45,22.40
2013,07,16,10,46,22.20
2013,07,16,10,47,22.20
2013,07,16,10,48,22.20
2013,07,16,10,49,22.20
2013,07,16,10,50,22.20
2013,07,16,10,51,22.20
2013,07,16,10,52,22.10
2013,07,16,10,53,22.00
2013,07,16,10,54,22.10
2013,07,16,10,55,22.10
2013,07,16,10,56,22.30
2013,07,16,10,57,22.40
2013,07,16,10,58,22.40
2013,07,16,10,59,22.40
2013,07,16,11,00,22.60
2013,07,16,11,01,22.70
2013,07,16,11,02,22.80
2013,07,16,11,03,22.90
2013,07,16,11,04,22.90
2013,07,16,11,05,22.90
2013,07,16,11,06,22.90
2013,07,16,11,07,22.90
2013,07,16,11,08,22.90
2013,07,16,11,09,22.90
2013,07,16,11,10,22.90
2013,07,16,11,11,22.90
2013,07,16,11,12,22.90
2013,07,16,11,13,23.00
2013,07,16,11,14,23.00
2013,07,16,11,15,23.10
2013,07,16,11,16,23.20
2013,07,16,11,17,23.20
2013,07,16,11,18,23.30
2013,07,16,11,19,23.30
2013,07,16,11,20,23.30
2013,07,16,11,21,23.30
2013,07,16,11,22,23.40
2013,07,16,11,23,23.40
2013,07,16,11,24,23.30
2013,07,16,11,25,23.30
2013,07,16,11,26,23.30
2013,07,16,11,27,23.30
2013,07,16,11,28,23.30
2013,07,16,11,29,23.30
2013,07,16,11,30,23.30
2013,07,16,11,31,23.40
2013,07,16,11,32,23.40
2013,07,16,11,33,23.30
2013,07,16,11,34,23.30
2013,07,16,11,35,23.50
2013,07,16,11,36,23.60
2013,07,16,11,37,23.70
2013,07,16,11,38,23.70
2013,07,16,11,39,23.80
2013,07,16,11,40,23.80
2013,07,16,11,41,23.80
2013,07,16,11,42,23.80
2013,07,16,11,43,23.90
2013,07,16,11,44,23.90
2013,07,16,11,45,23.90
2013,07,16,11,46,23.80
2013,07,16,11,47,23.80
2013,07,16,11,48,23.80
2013,07,16,11,49,23.80
2013,07,16,11,50,23.70
2013,07,16,11,51,23.70
2013,07,16,11,52,23.80
2013,07,16,11,53,23.90
2013,07,16,11,54,24.10
2013,07,16,11,55,24.20
2013,07,16,11,56,24.20
2013,07,16,11,57,24.20
2013,07,16,11,58,24.10
2013,07,16,11,59,24.10
2013,07,16,12,00,24.10
2013,07,16,12,01,24.00
2013,07,16,12,02,23.90
2013,07,16,12,03,23.90
2013,07,16,12,04,23.80
2013,07,16,12,05,23.60
2013,07,16,12,06,23.50
2013,07,16,12,07,23.40
2013,07,16,12,08,23.40
2013,07,16,12,09,23.50
2013,07,16,12,10,23.60
2013,07,16,12,11,23.70
2013,07,16,12,12,23.70
2013,07,16,12,13,23.90
2013,07,16,12,14,23.90
2013,07,16,12,15,24.00
2013,07,16,12,16,24.10
2013,07,16,12,17,24.10
2013,07,16,12,18,24.10
2013,07,16,12,19,24.00
2013,07,16,12,20,23.90
2013,07,16,12,21,23.80
2013,07,16,12,22,23.80
2013,07,16,12,23,23.90
2013,07,16,12,24,23.90
2013,07,16,12,25,23.90
2013,07,16,12,26,23.80
2013,07,16,12,27,23.70
2013,07,16,12,28,23.70
2013,07,16,12,29,23.60
2013,07,16,12,30,23.50
2013,07,16,12,31,23.40
2013,07,16,12,32,23.40
2013,07,16,12,33,23.40
2013,07,16,12,34,23.40
2013,07,16,12,35,23.60
2013,07,16,12,36,23.60
2013,07,16,12,37,23.50
2013,07,16,12,38,23.50
2013,07,16,12,39,23.60
2013,07,16,12,40,23.70
2013,07,16,12,41,23.90
2013,07,16,12,42,23.90
2013,07,16,12,43,23.90
2013,07,16,12,44,23.90
2013,07,16,12,45,24.00
2013,07,16,12,46,24.10
2013,07,16,12,47,24.10
2013,07,16,12,48,24.00
2013,07,16,12,49,23.80
2013,07,16,12,50,23.70
2013,07,16,12,51,23.60
2013,07,16,12,52,23.60
2013,07,16,12,53,23.60
2013,07,16,12,54,23.60
2013,07,16,12,55,23.60
2013,07,16,12,56,23.70
2013,07,16,12,57,23.80
2013,07,16,12,58,23.80
2013,07,16,12,59,23.80
2013,07,16,13,00,23.70
2013,07,16,13,01,23.70
2013,07,16,13,02,23.70
2013,07,16,13,03,23.70
2013,07,16,13,04,23.70
2013,07,16,13,05,23.50
2013,07,16,13,06,23.30
2013,07,16,13,07,23.20
2013,07,16,13,08,23.20
2013,07,16,13,09,23.10
2013,07,16,13,10,23.10
2013,07,16,13,11,23.00
2013,07,16,13,12,22.90
2013,07,16,13,13,22.90
2013,07,16,13,14,22.90
2013,07,16,13,15,22.90
2013,07,16,13,16,22.90
2013,07,16,13,17,23.00
2013,07,16,13,18,23.10
2013,07,16,13,19,23.10
2013,07,16,13,20,23.20
2013,07,16,13,21,23.20
2013,07,16,13,22,23.20
2013,07,16,13,23,23.20
2013,07,16,13,24,23.20
2013,07,16,13,25,23.20
2013,07,16,13,26,23.30
2013,07,16,13,27,23.30
2013,07,16,13,28,23.40
2013,07,16,13,29,23.50
2013,07,16,13,30,23.60
2013,07,16,13,31,23.60
2013,07,16,13,32,23.60
2013,07,16,13,33,23.70
2013,07,16,13,34,23.70
2013,07,16,13,35,23.70
2013,07,16,13,36,23.60
2013,07,16,13,37,23.60
2013,07,16,13,38,23.60
2013,07,16,13,39,23.50
2013,07,16,13,40,23.40
2013,07,16,13,41,23.30
2013,07,16,13,42,23.10
2013,07,16,13,43,23.00
2013,07,16,13,44,22.90
2013,07,16,13,45,22.80
2013,07,16,13,46,22.70
2013,07,16,13,47,22.70
2013,07,16,13,48,22.60
2013,07,16,13,49,22.50
2013,07,16,13,50,22.50
2013,07,16,13,51,22.50
2013,07,16,13,52,22.50
2013,07,16,13,53,22.60
2013,07,16,13,54,22.60
2013,07,16,13,55,22.60
2013,07,16,13,56,22.80
2013,07,16,13,57,22.80
2013,07,16,13,58,22.90
2013,07,16,13,59,22.90
2013,07,16,14,00,23.00
2013,07,16,14,01,23.10
2013,07,16,14,02,23.30
2013,07,16,14,03,23.30
2013,07,16,14,04,23.50
2013,07,16,14,05,23.60
2013,07,16,14,06,23.70
2013,07,16,14,07,23.80
2013,07,16,14,08,23.90
2013,07,16,14,09,23.90
2013,07,16,14,10,23.80
2013,07,16,14,11,23.80
2013,07,16,14,12,23.80
2013,07,16,14,13,23.70
2013,07,16,14,14,23.70
2013,07,16,14,15,23.70
2013,07,16,14,16,23.70
2013,07,16,14,17,23.70
2013,07,16,14,18,23.70
2013,07,16,14,19,23.70
2013,07,16,14,20,23.70
2013,07,16,14,21,23.60
2013,07,16,14,22,23.60
2013,07,16,14,23,23.60
2013,07,16,14,24,23.60
2013,07,16,14,25,23.60
2013,07,16,14,26,23.60
2013,07,16,14,27,23.50
2013,07,16,14,28,23.40
2013,07,16,14,29,23.40
2013,07,16,14,30,23.40
2013,07,16,14,31,23.40
2013,07,16,14,32,23.40
2013,07,16,14,33,23.40
2013,07,16,14,34,23.30
2013,07,16,14,35,23.30
2013,07,16,14,36,23.30
2013,07,16,14,37,23.30
2013,07,16,14,38,23.30
2013,07,16,14,39,23.30
2013,07,16,14,40,23.30
2013,07,16,14,41,23.30
2013,07,16,14,42,23.40
2013,07,16,14,43,23.40
2013,07,16,14,44,23.50
2013,07,16,14,45,23.60
2013,07,16,14,46,23.60
2013,07,16,14,47,23.70
2013,07,16,14,48,23.60
2013,07,16,14,49,23.60
2013,07,16,14,50,23.60
2013,07,16,14,51,23.60
2013,07,16,14,52,23.60
2013,07,16,14,53,23.60
2013,07,16,14,54,23.60
2013,07,16,14,55,23.60
2013,07,16,14,56,23.60
2013,07,16,14,57,23.60
2013,07,16,14,58,23.60
2013,07,16,14,59,23.60
2013,07,16,15,00,23.60
2013,07,16,15,01,23.70
2013,07,16,15,02,23.70
2013,07,16,15,03,23.70
2013,07,16,15,04,23.70
2013,07,16,15,05,23.70
2013,07,16,15,06,23.70
2013,07,16,15,07,23.80
2013,07,16,15,08,23.90
2013,07,16,15,09,24.00
2013,07,16,15,10,24.10
2013,07,16,15,11,24.20
2013,07,16,15,12,24.40
2013,07,16,15,13,24.50
2013,07,16,15,14,24.60
2013,07,16,15,15,24.70
2013,07,16,15,16,24.80
2013,07,16,15,17,24.90
2013,07,16,15,18,25.00
2013,07,16,15,19,25.10
2013,07,16,15,20,25.20
2013,07,16,15,21,25.20
2013,07,16,15,22,25.20
2013,07,16,15,23,25.20
2013,07,16,15,24,25.20
2013,07,16,15,25,25.20
2013,07,16,15,26,25.30
2013,07,16,15,27,25.30
2013,07,16,15,28,25.30
2013,07,16,15,29,25.40
2013,07,16,15,30,25.40
2013,07,16,15,31,25.40
2013,07,16,15,32,25.40
2013,07,16,15,33,25.50
2013,07,16,15,34,25.50
2013,07,16,15,35,25.60
2013,07,16,15,36,25.70
2013,07,16,15,37,25.70
2013,07,16,15,38,25.80
2013,07,16,15,39,25.90
2013,07,16,15,40,25.90
2013,07,16,15,41,25.90
2013,07,16,15,42,25.80
2013,07,16,15,43,25.70
2013,07,16,15,44,25.50
2013,07,16,15,45,25.40
2013,07,16,15,46,25.40
2013,07,16,15,47,25.30
2013,07,16,15,48,25.30
2013,07,16,15,49,25.30
2013,07,16,15,50,25.30
2013,07,16,15,51,25.30
2013,07,16,15,52,25.30
2013,07,16,15,53,25.20
2013,07,16,15,54,25.20
2013,07,16,15,55,25.30
2013,07,16,15,56,25.30
2013,07,16,15,57,25.30
2013,07,16,15,58,25.30
2013,07,16,15,59,25.30
2013,07,16,16,00,25.40
2013,07,16,16,01,25.40
2013,07,16,16,02,25.40
2013,07,16,16,03,25.30
2013,07,16,16,04,25.30
2013,07,16,16,05,25.20
2013,07,16,16,06,25.20
2013,07,16,16,07,25.10
2013,07,16,16,08,25.00
2013,07,16,16,09,25.00
2013,07,16,16,10,24.90
2013,07,16,16,11,24.80
2013,07,16,16,12,24.70
2013,07,16,16,13,24.70
2013,07,16,16,14,24.50
2013,07,16,16,15,24.40
2013,07,16,16,16,24.30
2013,07,16,16,17,24.20
2013,07,16,16,18,24.20
2013,07,16,16,19,24.20
2013,07,16,16,20,24.20
2013,07,16,16,21,24.20
2013,07,16,16,22,24.30
2013,07,16,16,23,24.40
2013,07,16,16,24,24.40
2013,07,16,16,25,24.50
2013,07,16,16,26,24.50
2013,07,16,16,27,24.60
2013,07,16,16,28,24.60
2013,07,16,16,29,24.70
2013,07,16,16,30,24.70
2013,07,16,16,31,24.70
2013,07,16,16,32,24.60
2013,07,16,16,33,24.60
2013,07,16,16,34,24.60
2013,07,16,16,35,24.50
2013,07,16,16,36,24.40
2013,07,16,16,37,24.40
2013,07,16,16,38,24.30
2013,07,16,16,39,24.20
2013,07,16,16,40,24.10
2013,07,16,16,41,24.00
2013,07,16,16,42,23.90
2013,07,16,16,43,23.80
2013,07,16,16,44,23.80
2013,07,16,16,45,23.70
2013,07,16,16,46,23.70
2013,07,16,16,47,23.80
2013,07,16,16,48,23.80
2013,07,16,16,49,23.80
2013,07,16,16,50,23.80
2013,07,16,16,51,23.80
2013,07,16,16,52,23.80
2013,07,16,16,53,23.70
2013,07,16,16,54,23.70
2013,07,16,16,55,23.70
2013,07,16,16,56,23.70
2013,07,16,16,57,23.70
2013,07,16,16,58,23.70
2013,07,16,16,59,23.70
2013,07,16,17,00,23.70
2013,07,16,17,01,23.70
2013,07,16,17,02,23.70
2013,07,16,17,03,23.70
2013,07,16,17,04,23.60
2013,07,16,17,05,23.60
2013,07,16,17,06,23.60
2013,07,16,17,07,23.60
2013,07,16,17,08,23.60
2013,07,16,17,09,23.70
2013,07,16,17,10,23.70
2013,07,16,17,11,23.70
2013,07,16,17,12,23.70
2013,07,16,17,13,23.70
2013,07,16,17,14,23.70
2013,07,16,17,15,23.70
2013,07,16,17,16,23.80
2013,07,16,17,17,23.80
2013,07,16,17,18,23.90
2013,07,16,17,19,23.90